This is the latest recevied weather packets stored in our database for station/object KC5DP. If no packets are shown the sender has not sent any weather packets the latest 10 day(s).
| Time | Temp. | Humidity | Pressure | Rain* | Wind** | Luminosity | Snow |
|---|---|---|---|---|---|---|---|
| 1777330656 | 28.33° C | 59% | 1013.3 hPa | 0 mm | - | 65 W/m² | - |
| 1777330353 | 28.33° C | 58% | 1013.1 hPa | 0 mm | - | 64 W/m² | - |
| 1777330051 | 28.33° C | 58% | 1013.1 hPa | 0 mm | - | 65 W/m² | - |
| 1777329745 | 28.33° C | 56% | 1013.1 hPa | 0 mm | - | 56 W/m² | - |
| 1777329443 | 28.89° C | 54% | 1013.2 hPa | 0 mm | - | 56 W/m² | - |
| 1777329140 | 28.89° C | 54% | 1013.1 hPa | 0 mm | - | 73 W/m² | - |
| 1777328837 | 28.89° C | 53% | 1013.1 hPa | 0 mm | - | 68 W/m² | - |
| 1777328535 | 28.89° C | 54% | 1013.1 hPa | 0 mm | - | 74 W/m² | - |
| 1777328233 | 28.89° C | 52% | 1013 hPa | 0 mm | - | 74 W/m² | - |
| 1777327931 | 29.44° C | 52% | 1012.9 hPa | 0 mm | - | 74 W/m² | - |
| 1777327629 | 29.44° C | 52% | 1013 hPa | 0 mm | - | 75 W/m² | - |
| 1777327326 | 29.44° C | 52% | 1012.7 hPa | 0 mm | - | 74 W/m² | - |
| 1777327023 | 29.44° C | 52% | 1012.9 hPa | 0 mm | - | 96 W/m² | - |
| 1777326720 | 29.44° C | 49% | 1012.9 hPa | 0 mm | - | 132 W/m² | - |
| 1777326417 | 29.44° C | 51% | 1013 hPa | 0 mm | - | 78 W/m² | - |
| 1777326115 | 30° C | 50% | 1012.9 hPa | 0 mm | - | 87 W/m² | - |
| 1777325812 | 30° C | 51% | 1012.9 hPa | 0 mm | - | 124 W/m² | - |
| 1777325510 | 30° C | 52% | 1013 hPa | 0 mm | - | 91 W/m² | - |
| 1777325208 | 30° C | 53% | 1013 hPa | 0 mm | - | 109 W/m² | - |
| 1777324904 | 30° C | 54% | 1012.8 hPa | 0 mm | - | 104 W/m² | - |
| 1777324602 | 30° C | 56% | 1013.1 hPa | 0 mm | - | 103 W/m² | - |
| 1777324299 | 30° C | 53% | 1013.1 hPa | 0 mm | - | 114 W/m² | - |
| 1777323997 | 30° C | 54% | 1013.2 hPa | 0 mm | - | 117 W/m² | - |
| 1777323694 | 30° C | 52% | 1013.2 hPa | 0 mm | - | 116 W/m² | - |
| 1777323391 | 30° C | 52% | 1013.3 hPa | 0 mm | - | 144 W/m² | - |
* Rain latest hour (hover to see other rain measurements)
** Current wind speed in m/s (hover to see current wind gust speed)